BEIDOU-2 IGSO-5

Last updated on Mon Oct 14 2024 00:02:39 GMT+0000 (Coordinated Universal Time)

1 37948U 11073A 24286.95083919 -.00000124 00000+0 00000+0 0 9995 2 37948 48.8004 279.0760 0102696 222.0638 318.9400 1.00265883 46991
UTC large
Height (km)
Speed (km/s)
/
Latitude / Longitude
Inclination (degrees)
Orbital Period (minutes)
Azimuth
Elevation
Range (km)
Doppler Factor

Next 0 passes for location: London (51.5072 / 0.1276)

Sorry there are no passes over London.